Total_Precipitation_Accumulation
1.49 1.50 1.44 1.42 1.46 1.46 1.34 1.25 1.24 1.25 1.22 1.15 1.05 0.99 0.96 0.94 1.00 1.15 1.22 1.24 1.28 1.26 1.21 1.19 1.24 1.30 1.39 1.36 1.40 1.49 1.66 1.85 1.91 1.60 1.41 1.36 1.40 1.41 1.40 1.34 1.18 1.03 0.97
1.37 1.41 1.33 1.27 1.27 1.30 1.23 1.13 1.06 1.06 1.03 1.00 0.95 0.91 0.87 0.88 0.97 1.02 1.04 1.04 1.11 1.10 1.08 1.07 1.06 1.14 1.24 1.25 1.28 1.32 1.44 1.61 1.73 1.71 1.52 1.39 1.36 1.38 1.40 1.40 1.15 0.94 0.88
1.30 1.36 1.37 1.29 1.24 1.19 1.15 1.03 0.94 0.96 0.96 0.93 0.90 0.91 0.91 0.88 0.92 0.93 0.92 0.95 1.00 1.02 1.02 0.99 0.98 1.06 1.10 1.12 1.16 1.20 1.25 1.29 1.44 1.46 1.32 1.26 1.23 1.25 1.40 1.39 1.29 1.24 0.90
1.15 1.26 1.31 1.29 1.21 1.13 1.09 1.08 1.00 0.96 0.93 0.87 0.86 0.86 0.83 0.80 0.84 0.86 0.85 0.92 1.00 0.96 0.89 0.88 0.89 0.89 0.92 1.01 1.03 1.13 1.24 1.33 1.38 1.38 1.28 1.17 1.19 1.24 1.47 1.54 1.46 1.32 1.10
1.05 1.11 1.11 1.10 1.09 1.01 0.98 1.02 0.97 0.94 0.90 0.89 0.84 0.81 0.75 0.73 0.73 0.77 0.76 0.76 0.89 0.89 0.86 0.86 0.81 0.77 0.77 0.82 0.85 0.96 1.14 1.32 1.38 1.42 1.34 1.24 1.24 1.40 1.45 1.39 1.38 1.26 1.11
1.03 1.02 0.97 0.94 0.93 0.87 0.84 0.82 0.80 0.83 0.90 0.91 0.91 0.87 0.78 0.68 0.75 0.74 0.65 0.70 0.81 0.85 0.88 0.87 0.79 0.71 0.66 0.66 0.65 0.72 0.91 1.13 1.32 1.47 1.43 1.34 1.27 1.37 1.47 1.42 1.48 1.48 1.36
1.06 0.96 0.90 0.89 0.87 0.81 0.77 0.78 0.79 0.82 0.88 0.93 0.95 0.95 0.88 0.77 0.78 0.72 0.67 0.69 0.79 0.92 0.95 0.92 0.78 0.67 0.75 0.74 0.72 0.68 0.72 0.82 1.08 1.39 1.53 1.41 1.36 1.45 1.59 1.57 1.58 1.60 1.51
1.07 0.96 0.86 0.85 0.86 0.83 0.85 0.87 0.87 0.85 0.88 0.95 0.98 0.93 0.89 0.81 0.78 0.70 0.66 0.67 0.72 0.81 0.85 0.85 0.93 0.95 0.83 0.77 0.71 0.75 0.84 0.91 0.96 1.04 1.26 1.30 1.20 1.26 1.44 1.50 1.54 1.52 1.45
1.00 0.91 0.81 0.77 0.81 0.80 0.79 0.82 0.85 0.89 0.91 0.95 0.95 0.92 0.90 0.83 0.72 0.66 0.68 0.71 0.68 0.68 0.67 0.69 0.77 0.84 0.77 0.71 0.73 0.84 0.92 0.99 0.85 0.93 1.02 1.16 1.24 1.18 1.19 1.29 1.51 1.68 1.67
0.84 0.78 0.72 0.74 0.76 0.76 0.76 0.79 0.85 0.88 0.88 0.88 0.92 0.93 0.88 0.82 0.66 0.58 0.64 0.65 0.67 0.66 0.69 0.71 0.68 0.63 0.64 0.64 0.73 0.91 1.02 1.01 1.07 1.24 1.39 1.48 1.44 1.36 1.23 1.30 1.58 1.77 1.80
0.67 0.68 0.71 0.76 0.81 0.77 0.82 0.85 0.87 0.86 0.91 0.90 0.87 0.85 0.82 0.71 0.57 0.49 0.50 0.52 0.60 0.63 0.69 0.75 0.71 0.59 0.57 0.57 0.67 0.86 1.02 1.10 1.36 1.67 1.72 1.62 1.53 1.45 1.37 1.34 1.47 1.64 1.81
0.69 0.73 0.76 0.79 0.68 0.65 0.82 0.84 0.81 0.88 0.93 0.88 0.84 0.80 0.74 0.65 0.50 0.41 0.39 0.41 0.48 0.58 0.77 0.75 0.68 0.62 0.55 0.55 0.65 0.85 0.97 1.20 1.55 1.79 1.68 1.47 1.34 1.27 1.23 1.24 1.32 1.40 1.58
0.86 0.86 0.80 0.79 0.79 0.82 0.84 0.79 0.78 0.81 0.77 0.66 0.64 0.67 0.63 0.61 0.55 0.41 0.36 0.37 0.43 0.50 0.68 0.71 0.66 0.64 0.62 0.76 0.87 1.00 1.13 1.35 1.61 1.64 1.48 1.34 1.26 1.21 1.14 1.18 1.21 1.25 1.24
0.94 0.88 0.82 0.83 0.89 0.89 0.80 0.66 0.64 0.63 0.61 0.60 0.58 0.59 0.58 0.54 0.46 0.37 0.35 0.38 0.44 0.49 0.60 0.75 0.83 0.85 0.89 1.01 1.12 1.23 1.33 1.43 1.44 1.38 1.28 1.25 1.18 1.17 1.15 1.14 1.19 1.20 1.25
0.96 0.88 0.79 0.72 0.73 0.76 0.62 0.48 0.47 0.46 0.46 0.54 0.58 0.58 0.57 0.50 0.38 0.37 0.35 0.36 0.43 0.50 0.58 0.79 0.99 1.06 1.13 1.20 1.21 1.27 1.34 1.32 1.28 1.25 1.24 1.19 1.14 1.14 1.15 1.15 1.22 1.17 1.18
0.90 0.82 0.71 0.59 0.55 0.51 0.46 0.46 0.40 0.35 0.37 0.43 0.51 0.48 0.40 0.39 0.35 0.32 0.35 0.40 0.46 0.55 0.63 0.88 1.07 1.13 1.16 1.19 1.19 1.22 1.24 1.19 1.14 1.15 1.19 1.17 1.16 1.15 1.16 1.21 1.26 1.24 1.22
0.84 0.75 0.59 0.48 0.45 0.43 0.43 0.51 0.55 0.44 0.37 0.39 0.42 0.41 0.39 0.37 0.35 0.33 0.36 0.42 0.47 0.55 0.65 0.87 1.07 1.22 1.24 1.16 1.10 1.11 1.16 1.16 1.14 1.14 1.17 1.18 1.14 1.11 1.13 1.17 1.20 1.17 1.16
0.68 0.57 0.49 0.44 0.40 0.37 0.36 0.41 0.56 0.62 0.60 0.58 0.52 0.44 0.42 0.39 0.38 0.38 0.40 0.43 0.53 0.60 0.72 0.89 1.03 1.10 1.14 1.14 1.07 1.07 1.09 1.12 1.15 1.13 1.13 1.18 1.17 1.13 1.10 1.13 1.13 1.06 1.03
0.56 0.47 0.41 0.37 0.35 0.34 0.34 0.38 0.48 0.53 0.62 0.69 0.63 0.54 0.51 0.46 0.46 0.46 0.45 0.47 0.57 0.66 0.76 0.84 0.90 0.91 0.90 0.93 0.92 0.92 0.95 1.00 1.01 0.99 1.00 1.04 1.08 1.09 1.08 1.03 0.97 0.91 0.93
0.45 0.42 0.36 0.28 0.27 0.29 0.33 0.40 0.49 0.54 0.60 0.69 0.66 0.59 0.54 0.57 0.61 0.60 0.54 0.51 0.53 0.60 0.68 0.76 0.81 0.78 0.76 0.77 0.76 0.75 0.77 0.79 0.79 0.80 0.83 0.86 0.90 0.94 0.94 0.87 0.83 0.84 0.91
0.32 0.36 0.37 0.28 0.26 0.29 0.35 0.45 0.55 0.63 0.63 0.69 0.66 0.58 0.60 0.63 0.70 0.72 0.69 0.65 0.62 0.60 0.63 0.64 0.70 0.74 0.73 0.73 0.70 0.67 0.67 0.67 0.66 0.67 0.71 0.77 0.80 0.82 0.78 0.75 0.74 0.75 0.81
0.31 0.34 0.32 0.33 0.35 0.37 0.44 0.51 0.59 0.63 0.61 0.63 0.58 0.53 0.57 0.59 0.66 0.68 0.71 0.74 0.73 0.68 0.65 0.65 0.67 0.72 0.77 0.77 0.69 0.65 0.64 0.62 0.60 0.62 0.66 0.70 0.70 0.66 0.63 0.64 0.66 0.71 0.73
0.28 0.33 0.32 0.33 0.37 0.43 0.48 0.54 0.58 0.58 0.57 0.56 0.52 0.51 0.52 0.57 0.60 0.62 0.66 0.70 0.73 0.72 0.69 0.66 0.67 0.69 0.70 0.71 0.68 0.58 0.54 0.53 0.51 0.53 0.61 0.65 0.64 0.59 0.56 0.59 0.63 0.66 0.67
0.27 0.33 0.34 0.33 0.37 0.39 0.44 0.48 0.49 0.50 0.46 0.48 0.50 0.49 0.50 0.55 0.60 0.63 0.65 0.66 0.69 0.72 0.70 0.70 0.68 0.65 0.62 0.61 0.57 0.47 0.41 0.41 0.39 0.42 0.50 0.56 0.56 0.54 0.54 0.57 0.56 0.55 0.56
0.25 0.29 0.28 0.28 0.31 0.34 0.38 0.39 0.37 0.40 0.39 0.40 0.44 0.46 0.47 0.51 0.55 0.54 0.56 0.59 0.63 0.67 0.67 0.65 0.64 0.59 0.54 0.51 0.48 0.40 0.38 0.39 0.39 0.39 0.44 0.49 0.48 0.52 0.56 0.55 0.52 0.52 0.55
0.22 0.25 0.25 0.27 0.32 0.34 0.36 0.36 0.34 0.35 0.37 0.39 0.39 0.39 0.40 0.42 0.45 0.48 0.49 0.49 0.52 0.59 0.63 0.60 0.54 0.50 0.46 0.43 0.44 0.45 0.43 0.38 0.37 0.40 0.43 0.48 0.51 0.53 0.55 0.55 0.52 0.54 0.58